Regional Weather Roundup
Issued by NWS Key West, FL

Current Version | Previous Version | Text Only | Print | Product List | Glossary On
Versions: 1 2 3 4 5 6 7 8 9 10 11 12 13 14 15 16 17 18 19 20 21 22 23 24 25 26 27 28 29 30 31 32 33 34 35 36 37 38 39 40 41 42 43 44 45 46 47 48 49 50
000 ASUS42 KKEY 050510 RWRKEY FLORIDA KEYS REGIONAL WEATHER ROUNDUP NATIONAL WEATHER SERVICE KEY WEST FLORIDA 1200 AM EST FRI MAR 05 2021 ...FLORIDA KEYS... CITY SKY/WX TMP DP RH WIND PRES REMARKS KEY WEST MOCLDY 68 59 73 N8 29.99F BOCA CHICA NAS MOCLDY 68 59 73 N12 29.99F MARATHON FAIR 68 56 65 N10 29.96F ...SOUTH FLORIDA... CITY SKY/WX TMP DP RH WIND PRES REMARKS HOMESTEAD CLEAR 61 N/A N/A NW5 29.95F WEST KENDALL PTCLDY 60 56 86 W7 29.97S MIAMI PTCLDY 65 57 75 W3 29.97S OPA LOCKA PTCLDY 63 56 78 NW6 29.98R PEMBROKE PINES CLEAR 61 57 87 NW5 29.98S FT LAUDERDALE CLEAR 64 59 82 NW6 29.96S FT LAUD EXEC CLEAR 64 58 80 CALM 29.97S POMPANO BEACH CLEAR 64 60 87 N6 29.97S BOCA RATON NOT AVBL WEST PALM BCH PTCLDY 62 57 83 NW6 29.98S ...SOUTHWEST FLORIDA... CITY SKY/WX TMP DP RH WIND PRES REMARKS MARCO ISLAND CLEAR 63 56 78 N5 30.00F NAPLES CLEAR 62 32 32 CALM 29.99F FT MYERS-SW AP CLEAR 60 51 72 N7 30.00S FORT MYERS CLEAR 61 52 72 N7 29.99F ...ADJACENT COASTAL WATERS... STATION/POSITION TIME SKY/WX TEMP WIND PRES WAVE AIR SEA DIR/SP/G HT/PER (UTC) (F) (DEG/KT/KT) (MB) (FT/S) PULASKI SHOAL LT NOT AVBL SAND KEY 0450 68 340/ 13/ 17 1015.8F SOMBRERO KEY 0450 340/ 11/ 15 1013.9F LONG KEY 0450 1014.5F FOWEY ROCKS 0500 70 75 340/ 11/ 13 1014.7F SATAN SHL BUOY 0430 76 N/A 2/ 3 LOOP CURR BUOY 0300 73 350/ 12/ 16 1017.5R PULLEY RDG BUOY 0456 72 N/A 3/ 5 ...INTERNATIONAL WEATHER... CITY SKY/WX TMP DP RH WIND PRES REMARKS NASSAU PTCLDY 66 61 82 W6 29.91F HAVANA PTCLDY 68 57 68 N13 30.00S VARADERO PTCLDY 70 59 68 NW12 30.00S CANCUN PTCLDY 68 68 100 CALM 30.01F COZUMEL N/A N/A N/A N/A MISG N/A KINGSTON PTCLDY 79 70 73 VRB2 29.94S $$

USA.gov is the U.S. government's official web portal to all federal, state and local government web resources and services.